Location: Bennemühlen
(52.5740°N, 9.7135°E)
Time: 01:50:09
(UTC+00:00)

Vanguard 1 - All Passes

Search period start: 07 February 2026 00:00
Search period end: 17 February 2026 00:00
Orbit: 651 x 3820 km, 34.3° (Epoch: 6 February)

Date Brightness Start Highest point End Pass type
(mag) Time Alt. Az. Time Alt. Az. Time Alt. Az.
7 Feb - 14:23:53 10° SE 14:29:54 13° ESE 14:36:39 10° ESE daylight
7 Feb - 16:34:42 10° SSW 16:49:35 33° SSE 17:08:15 10° E visible
7 Feb - 18:53:31 10° WSW 19:12:17 46° S 19:32:50 10° ESE visible
7 Feb - 21:15:56 10° W 21:35:55 41° SSW 21:53:59 10° SE visible
7 Feb - 23:42:18 10° W 23:57:30 23° SW 00:10:16 10° S visible
8 Feb - 14:39:01 10° SSE 14:48:04 17° SE 14:59:06 10° E daylight
8 Feb - 16:52:56 10° SSW 17:08:20 37° SSE 17:27:55 10° E visible
8 Feb - 19:12:30 10° WSW 19:31:25 46° S 19:51:57 10° ESE visible
8 Feb - 21:35:25 10° W 21:54:50 38° SSW 22:12:25 10° SSE visible
9 Feb - 00:03:10 10° W 00:15:52 18° SW 00:26:55 10° SSW visible
9 Feb - 14:55:43 10° S 15:06:23 22° SE 15:20:04 10° E daylight
9 Feb - 17:11:24 10° SW 17:27:13 40° SSE 17:47:27 10° E visible
9 Feb - 19:31:36 10° WSW 19:50:33 45° S 20:10:57 10° ESE visible
9 Feb - 21:55:02 10° W 22:13:40 34° SSW 22:30:36 10° SSE visible
10 Feb - 00:25:16 10° WSW 00:34:07 14° SW 00:42:11 10° SSW visible
10 Feb - 15:13:08 10° S 15:24:48 26° SE 15:40:25 10° E daylight
10 Feb - 17:30:03 10° SW 17:46:11 43° SSE 18:06:51 10° ESE visible
10 Feb - 19:50:47 10° WSW 20:09:39 44° S 20:29:48 10° SE visible
10 Feb - 22:14:51 10° W 22:32:23 29° SW 22:48:26 10° SSE visible
11 Feb - 15:31:01 10° SSW 15:43:22 30° SE 16:00:24 10° E daylight
11 Feb - 17:48:51 10° SW 18:05:13 44° S 18:26:09 10° ESE visible
11 Feb - 20:10:04 10° WSW 20:28:44 41° SSW 20:48:29 10° SE visible
11 Feb - 22:34:59 10° W 22:51:00 25° SW 23:05:49 10° S visible
12 Feb - 13:36:54 10° SSE 13:42:45 13° SE 13:49:43 10° ESE daylight
12 Feb - 15:49:12 10° SSW 16:02:02 34° SSE 16:20:10 10° E daylight
12 Feb - 18:07:47 10° WSW 18:24:19 45° S 18:45:20 10° ESE visible
12 Feb - 20:29:28 10° W 20:47:44 38° SSW 21:06:57 10° SE visible
12 Feb - 22:55:36 10° W 23:09:30 20° SW 23:22:33 10° S visible
13 Feb - 13:53:02 10° SSE 14:00:59 18° SE 14:11:19 10° E daylight
13 Feb - 16:07:37 10° SW 16:20:50 37° SSE 16:39:46 10° E daylight
13 Feb - 18:26:48 10° WSW 18:43:26 44° S 19:04:23 10° ESE visible
13 Feb - 20:49:00 10° W 21:06:40 34° SSW 21:25:08 10° SSE visible
13 Feb - 23:17:10 10° W 23:27:54 16° SW 23:38:09 10° SSW visible
14 Feb - 14:10:16 10° S 14:19:21 22° SE 14:31:55 10° E daylight
14 Feb - 16:26:13 10° SW 16:39:44 40° SSE 16:59:15 10° ESE daylight
14 Feb - 18:45:56 10° WSW 19:02:34 43° S 19:23:17 10° SE visible
14 Feb - 21:08:43 10° W 21:25:30 30° SSW 21:42:59 10° SSE visible
14 Feb - 23:41:52 10° WSW 23:46:12 11° SW 23:50:28 10° SW visible
15 Feb - 14:28:01 10° SSW 14:37:51 26° SE 14:52:03 10° E daylight
15 Feb - 16:44:58 10° SW 16:58:43 42° SSE 17:18:36 10° ESE visible
15 Feb - 19:05:09 10° WSW 19:21:40 41° SSW 19:42:00 10° SE visible
15 Feb - 21:28:43 10° W 21:44:15 26° SW 22:00:22 10° S visible
16 Feb - 14:46:09 10° SSW 14:56:27 30° SSE 15:11:54 10° E daylight
16 Feb - 17:03:52 10° WSW 17:17:45 42° S 17:37:50 10° ESE visible
16 Feb - 19:24:29 10° WSW 19:40:44 38° SSW 20:00:29 10° SE visible
16 Feb - 21:49:11 10° W 22:02:55 21° SW 22:17:07 10° S visible
